Location: *
(47.8307°S, 178.3954°E)
Time: 07:23:44
(UTC+00:00)

Cosmos 2228 - Pass Details

Date: 12 August 2024
Orbit: 575 x 601 km, 82.5° (Epoch: 18 September)

Event Time Altitude Azimuth Distance (km) Brightness Sun altitude
Rises 18:33:03 0° 192° (SSW) 2,898 6.2 -7.2°
Reaches altitude 10° 18:35:18 10° 194° (SSW) 1,983 5.4 -6.9°
Maximum altitude 18:39:40 67° 276° (W) 661 3.0 -6.2°
Drops below altitude 10° 18:43:55 10° 358° (N) 1,939 5.8 -5.5°
Sets 18:46:06 0° 0° (N) 2,827 6.7 -5.1°
